Regional Weather Roundup
Issued by NWS Wilmington, NC

Home | Current Version | Previous Version | Text Only | Print | Product List | Glossary On
Versions: 1 2 3 4 5 6 7 8 9 10 11 12 13 14 15 16 17 18 19 20 21 22 23 24 25 26 27 28 29 30 31 32 33 34 35 36 37 38 39 40 41 42 43 44 45 46 47 48 49 50
000
ASUS42 KILM 291812
RWRILM
RWRILM
REGIONAL HOURLY WEATHER ROUNDUP
NATIONAL WEATHER SERVICE WILMINGTON NC
200 PM EDT WED JUL 29 2015

NOTE: "FAIR" INDICATES FEW OR NO CLOUDS BELOW 12,000 FEET WITH NO
SIGNIFICANT WEATHER AND/OR OBSTRUCTIONS TO VISIBILITY.

...............WFO WILMINGTON COUNTY WARNING AREA...............

......COASTAL NC AND SC COUNTIES......

CITY           SKY/WX    TMP DP  RH WIND       PRES   REMARKS
WILMINGTON     SUNNY     88  66  48 E10       29.99F HX  90
N MYRTLE BEACH SUNNY     87  75  67 E9        29.98F HX  96
MYRTLE BEACH   MOSUNNY   88  72  58 SE9       29.99F HX  94

......INLAND NC AND SC COUNTIES.......

CITY           SKY/WX    TMP DP  RH WIND       PRES   REMARKS
LUMBERTON      SUNNY     94  64  37 E8        29.98F HX  95
ELIZABETHTOWN  MOSUNNY   92  67  44 SE6       29.99S HX  95
WHITEVILLE     SUNNY     90  70  51 E6        29.98F HX  95
FLORENCE       SUNNY     94  65  38 E7        29.97F HX  96
DARLINGTON     SUNNY     93  68  43 E5        29.99F HX  97

....................REST OF NORTH CAROLINA......................

.........EASTERN NC.........

CITY           SKY/WX    TMP DP  RH WIND       PRES   REMARKS
CAPE HATTERAS  MOSUNNY   88  71  57 SE14      30.02R HX  94
JACKSONVILLE   MOSUNNY   90  68  48 E3        29.99F HX  93
MOREHEAD CITY  SUNNY     86  72  62 E7        30.00S HX  92
KENANSVILLE    SUNNY     87  68  52 CALM      30.01F HX  91
NEW BERN       SUNNY     90  67  46 E7        30.01F HX  93
ELIZABETH CITY SUNNY     87  68  52 SE8       30.02F HX  90

.........CENTRAL NC.........

CITY           SKY/WX    TMP DP  RH WIND       PRES   REMARKS
RALEIGH DURHAM PTSUNNY   87  70  56 VRB6      30.02F HX  92
ROCKY MOUNT    PTSUNNY   90  69  50 VRB3      30.01F HX  94
ROANOKE RAPIDS NOT AVBL
FAYETTEVILLE   SUNNY     90  65  43 VRB5      29.99F HX  92
HOFFMAN        PTSUNNY   92  67  42 S5G13     29.99F HX  96

.........WESTERN NC.........

CITY           SKY/WX    TMP DP  RH WIND       PRES   REMARKS
CHARLOTTE      PTSUNNY   89  70  53 S5        30.01F HX  94
GREENSBORO     PTSUNNY   86  70  58 VRB3      30.01F HX  90
HICKORY        NOT AVBL
BOONE          NOT AVBL
ASHEVILLE      NOT AVBL

.....................REST OF SOUTH CAROLINA.....................

.........EASTERN SC.........

CITY           SKY/WX    TMP DP  RH WIND       PRES   REMARKS
CHARLESTON     MOSUNNY   91  72  53 CALM      29.96F HX  98
BEAUFORT MCAS  MOSUNNY   91  72  53 VRB3      29.97F HX  98
HILTON HEAD    MOSUNNY   88  77  70 E6        29.98F HX 100

.........CENTRAL SC.........

CITY           SKY/WX    TMP DP  RH WIND       PRES   REMARKS
COLUMBIA       MOSUNNY   95  68  41 MISG      29.96F HX  99
ORANGEBURG     SUNNY     93  69  45 VRB5      29.97F HX  98
SUMTER SHAW    MOSUNNY   95  66  38 VRB5      29.95F HX  98

.........WESTERN SC.........

CITY           SKY/WX    TMP DP  RH WIND       PRES   REMARKS
GREENVILLE     NOT AVBL
ROCK HILL      PTSUNNY   89  73  59 VRB3      30.01F HX  97
ANDERSON       MOSUNNY   92  71  50 S5        29.99F HX  98
CLEMSON        NOT AVBL
GREENWOOD      MOSUNNY   91  74  57 SE6       30.00F HX 100


...................COASTAL AND OFFSHORE REPORTS..................

................LOCAL PIERS AND NC RESERVE................


STATION/POSITION TIME  SKY/WX   TEMP    WIND        PRES    VSBY
                                AIR SEA DIR/SP/G
                 (UTC)          (F)     (DEG/KT/KT) (MB)    (MI)
JOHNY MRCER PIER 1700            81 86   50/ 12/ 13 1015.7F
NC RESRV MASNBRO NOT AVBL
OCEAN CREST PIER NOT AVBL
SPRINGMAID  PIER 1700            83 86   70/  8/  9 1015.9F


................COASTAL AND OFFSHORE BUOYS................


STATION/POSITION TIME  SKY/WX   TEMP    WIND        PRES    VSBY
                                AIR SEA DIR/SP/G
                 (UTC)          (F)     (DEG/KT/KT) (MB)    (MI)
DIMNDSHOAL 41025 NOT AVBL
CAPE LOOKOUT     1800            82      60/ 13/ 14 1015.6S
ONSLOW BAY 41036 NOT AVBL
5 WRITEBCH 41038 1708            81 82   70/ 12/ 14 1016.0F
MASONBORO  41110 1719               82                N/A
WVE H/P(F/S)=  3/ 6 WND WVE H/P(F/S)=  3/ 6

WILM HARBR 41108 1711               82                N/A
WVE H/P(F/S)=  3/ 6 WND WVE H/P(F/S)=  3/ 6

27WRITEBCH 41037 1700            79 82   60/ 12/ 14   N/A
FRYING PAN 41013 1750            83 84   30/ 14/ 16 1015.3F
WVE H/P(F/S)=  4/ 7 WND WVE H/P(F/S)=  3/ 7 SWL H/P/D(F/S/D)=  2/120/10

SUNST NRSH 41024 1708            83     120/ 10/ 12 1015.5F
CAPRS NRSH 41029 1708            82      70/ 12/ 16 1015.4F
EDISTO     41004 1750            83 85   20/ 14/ 16 1014.0F
WVE H/P(F/S)=  3/ 7 WND WVE H/P(F/S)=  3/ 5 SWL H/P/D(F/S/D)=  2/ 7



..........OFFSHORE BUOYS BEYOND 100 NM OFFSHORE...........
.....IN A TRIANGLE---HAT TO BERMUDA TO BAHAMAS TO HAT.....


STATION/POSITION TIME  SKY/WX   TEMP    WIND        PRES    VSBY
                                AIR SEA DIR/SP/G
                 (UTC)          (F)     (DEG/KT/KT) (MB)    (MI)
150E HAT   41001 1700            81 83  100/ 14/ 16 1017.1F
W BERMUDA  41048 1750            81 81  260/ 10/ 10 1018.1R
WVE H/P(F/S)=  4/ 7 WND WVE H/P(F/S)=  2/ 4 SWL H/P/D(F/S/D)=  3/260/ 7

ATLANTIC S 41049 1750            84 86  220/  8/ 10 1020.2S
WVE H/P(F/S)=  4/ 8 SWL H/P/D(F/S/D)=  5/150/ 8

E BAHAMAS  41046 1750            84 85  120/  6/  6 1019.1F
WVE H/P(F/S)=  3/ 7 WND WVE H/P(F/S)=  2/ 3 SWL H/P/D(F/S/D)=  3/120/ 7

NE BAHAMAS 41047 1750            84 85  210/ 10/ 12 1018.5S
WVE H/P(F/S)=  3/ 7 WND WVE H/P(F/S)=  2/ 4 SWL H/P/D(F/S/D)=  3/130/ 7

120E CANVRL41010 1720            81 84  210/ 17/ 19 1013.8F

END



USA.gov is the U.S. government's official web portal to all federal, state and local government web resources and services.